sat.trackr.live / text

‹ back to catalog

STARLINK-34055

NORAD 63819 · 2025-092R

PAYLOAD ACTIVE UNKNOWN

§ Identity

Operator
Country
US
Launch date
2025-05-04
Launch site
AFETR
Launch vehicle
Mass (kg)
RCS (m²)

Purposes: comms

External: N2YO · Heavens-Above · Gunter

§ Orbital elements

Epoch: 2026-09-20T22:00:03.000096Z

Period
92.03 min
Inclination
42.9984°
Eccentricity
0.0021277
Mean motion
15.64723883 rev/d
Perigee alt
359.7 km
Apogee alt
388.4 km
Semi-major
6,752.2 km
B*
2.6873e-3
RAAN
135.6747°
Arg perigee
247.6587°
Mean anomaly
222.5654°
Rev number
593

§ Raw data

STARLINK-340551 63819U 25092R   26263.91670139  .00280397  00000+0  26873-2 0  99962 63819  42.9984 135.6747 0021277 247.6587 222.5654 15.64723883  5936

JSON: /api/v1/satellites/63819 · /tle

For live sub-satellite position, see the globe view (requires WebGL).

§ Visibility from observer

Set your observer location to see the next 7 days of passes ≥ 10°. The values pass through the URL so the page stays shareable.

No JS? Fill the form by hand. The geolocation button needs JavaScript.